Regional Weather Roundup
Issued by NWS

Home | Current Version | Previous Version | Text Only | Print | Product List | Glossary Off
Versions: 1 2 3 4 5 6 7 8 9 10 11 12 13 14 15 16 17 18 19 20 21 22 23 24 25 26 27 28 29 30 31 32 33 34 35 36 37 38 39 40 41 42 43 44 45 46 47 48 49 50

000
ASUS43 KOAX 302210
RWRNE

WEATHER ROUNDUP FOR NEBRASKA
NATIONAL WEATHER SERVICE OMAHA NE
500 PM CDT SUN APR 30 2017

NOTES: SATELLITE DATA IS BEING USED TO AUGMENT CLOUD COVER ABOVE
       12000 FEET.
       "FAIR" INDICATES FEW OR NO CLOUDS BELOW 12,000 FEET WITH NO
       SIGNIFICANT WEATHER AND/OR OBSTRUCTIONS TO VISIBILITY.

  * THESE STATIONS DO NOT REPORT WEATHER SUCH AS RAIN...SNOW OR FOG.

NEZ001>004-019>022-054>056-302300-
NEBRASKA PANHANDLE

CITY           SKY/WX    TMP DP  RH WIND       PRES   REMARKS
SCOTTSBLUFF    SUNNY     58  25  28 N18G25    29.86F
ALLIANCE       CLOUDY    55  21  26 N24G33    29.82F
CHADRON        SUNNY     58  23  26 N22G28    29.86F
KIMBALL        SUNNY     54  21  28 N23G31    29.85S
SIDNEY         CLOUDY    54  19  25 N23G40    29.81F
$$

NEZ057>060-069>072-079>082-302300-
SOUTHWEST NEBRASKA

CITY           SKY/WX    TMP DP  RH WIND       PRES   REMARKS
NORTH PLATTE   LGT SNOW  34  32  92 N17G28    29.75F VSB 3/4 WCI  23
IMPERIAL       CLOUDY    47  21  35 N29G36    29.75F
LEXINGTON      LGT SNOW  34  32  92 N30G43    29.65R WCI  20
MCCOOK         LGT SNOW  34  32  92 N28G41    29.71R WCI  21
OGALLALA       CLOUDY    52  18  26 N29G37    29.78F
$$

NEZ005>010-023>029-035>040-094-302300-
NORTH CENTRAL NEBRASKA

CITY           SKY/WX    TMP DP  RH WIND       PRES   REMARKS
VALENTINE      CLOUDY    51  15  23 N20G32    29.79F
AINSWORTH      CLOUDY    45  22  40 N20G29    29.76F
BROKEN BOW     FOG       34  33  96 N29G38    29.70S VSB 3/4 WCI  20
O`NEILL        LGT SNOW  34  32  94 N21G26    29.71S WCI  22
ORD            HVY SNOW  33  33 100 N22       29.69F VSB 1/4 WCI  21
THEDFORD       CLOUDY    47  20  34 N21G30    29.76S
$$

NEZ041-046>049-061>064-073>077-083>087-302300-
SOUTH CENTRAL NEBRASKA

CITY           SKY/WX    TMP DP  RH WIND       PRES   REMARKS
GRAND ISLAND   CLOUDY    35  35 100 N17G23    29.61R WCI  25
AURORA         CLOUDY    37  37  98 N22G29    29.57F WCI  26
HASTINGS       LGT SNOW  37  35  92 N23G31    29.58S FOG     WCI  26
HEBRON         LGT RAIN  40  39  97 N22G30    29.50S WCI  30
HOLDREGE       DRIZZLE   34  32  92 N20G31    29.62S WCI  23
KEARNEY *      CLOUDY    34  30  86 N26G32    29.61F WCI  21
YORK           CLOUDY    37  37 100 NE26G35   29.55S WCI  26
$$

NEZ011>018-030>034-042>045-302300-
NORTHEAST NEBRASKA

CITY           SKY/WX    TMP DP  RH WIND       PRES   REMARKS
NORFOLK        RAIN      37  35  92 NE15G24   29.68R FOG     WCI  28
ALBION         LGT SNOW  34  32  92 N8        29.68F VSB 1   WCI  27
BLAIR          LGT RAIN  41  40  95 N25G33    29.52F
FREMONT        RAIN      40  40  99 N16G23    29.57F WCI  32
TEKAMAH        LGT RAIN  41  39  93 N14       29.65S FOG
WAYNE          LGT RAIN  37  37  99 NE12      29.69S WCI  30
$$

NEZ050>053-065>068-078-088>093-302300-
SOUTHEAST NEBRASKA

CITY           SKY/WX    TMP DP  RH WIND       PRES   REMARKS
LINCOLN        CLOUDY    42  39  89 NE23G32   29.53S
OMAHA EPPLEY   LGT RAIN  43  39  86 N25G33    29.52F FOG
BEATRICE       CLOUDY    45  44  97 NE18G29   29.47F FOG
FALLS CITY     LGT RAIN  53  52  96 E9        29.45S
NEBRASKA CITY  DRIZZLE   45  45 100 NE17      29.49S
PLATTSMOUTH    CLOUDY    43  40  91 N13G21    29.52S
$$

NEZ044-045-051>053-067-302300-
OMAHA AREA

CITY           SKY/WX    TMP DP  RH WIND       PRES   REMARKS
OMAHA EPPLEY   LGT RAIN  43  39  86 N25G33    29.52F FOG
BLAIR          LGT RAIN  41  40  95 N25G33    29.52F
FREMONT        RAIN      40  40  99 N16G23    29.57F WCI  32
MILLARD        LGT RAIN  44  42  93 NE7G24    29.53F
OFFUTT AFB     LGT RAIN  43  41  93 N12G18    29.53R
PLATTSMOUTH    CLOUDY    43  40  91 N13G21    29.52S
WAHOO          LGT RAIN  40  38  94 N26G39    29.51F WCI  29
$$




USA.gov is the U.S. government's official web portal to all federal, state and local government web resources and services.